M I D A S
Marine Information and Data Acquisition System
Tripno 142 of the Zeeleeuw from 2001-07-19 06:59:27 to 2001-07-19 14:35:00
Back to CruiseResearch ActivitiesStationsMapUnderway DataData graphs

EquipmentUnitsComment
TimeDGPSUTC
LatitudeDGPSDM.mWGS84
LongitudeDGPSDM.mWGS84
TemperatureSBE03/SBE38deg celciusITS90
ConductivitySBE21S/mITS90
SalinitySBE21 Practical Salinity Units
ChlorophylAChelsea fluorimeterg/lCalibrated in Aceton
Missing or incorrect values are displayed as -999
Sea surface data collected by the RV Zeeleeuw from 2001-07-19 06:59:27 to 2001-07-19 14:35:00
Time Latitude Longitude Temperature Conductivity Salinity ChlorophylA
2001-07-19 07:00:31 51°14.084 2°55.466 -999 -999 -999  
2001-07-19 07:04:57 51°14.485 2°54.758 -999 -999 -999  
2001-07-19 07:05:57 51°14.59 2°54.543 -999 -999 -999  
2001-07-19 07:06:57 51°14.699 2°54.319 -999 -999 -999  
2001-07-19 07:07:57 51°14.807 2°54.09 -999 -999 -999  
2001-07-19 07:08:57 51°14.913 2°53.859 -999 -999 -999  
2001-07-19 07:09:57 51°15.025 2°53.638 -999 -999 -999  
2001-07-19 07:10:57 51°15.084 2°53.48 -999 -999 -999  
2001-07-19 07:11:57 51°15.09 2°53.443 -999 -999 -999  
2001-07-19 07:12:57 51°15.06 2°53.436 -999 -999 -999  
2001-07-19 09:10:46 51°17.575 2°52.435 -999 -999 -999  
2001-07-19 09:11:45 51°17.366 2°52.384 -999 -999 -999  
2001-07-19 09:12:46 51°17.145 2°52.426 -999 -999 -999  
2001-07-19 09:13:45 51°16.953 2°52.602 -999 -999 -999  
2001-07-19 09:14:45 51°16.75 2°52.758 -999 -999 -999  
2001-07-19 09:15:45 51°16.572 2°52.981 -999 -999 -999  
2001-07-19 09:16:45 51°16.38 2°53.183 -999 -999 -999  
2001-07-19 09:17:46 51°16.185 2°53.39 -999 -999 -999  
2001-07-19 09:18:57 51°16.054 2°53.489 -999 -999 -999  
2001-07-19 09:22:33 51°16.028 2°53.65 -999 -999 -999  
2001-07-19 09:23:33 51°16.017 2°53.687 -999 -999 -999  
2001-07-19 09:24:33 51°16 2°53.717 -999 -999 -999  
2001-07-19 09:25:33 51°15.946 2°53.803 -999 -999 -999  
2001-07-19 09:26:33 51°15.999 2°54.017 -999 -999 -999  
2001-07-19 09:27:33 51°16.15 2°54.145 -999 -999 -999  
2001-07-19 09:28:33 51°16.315 2°54.255 -999 -999 -999  
2001-07-19 09:29:33 51°16.48 2°54.38 -999 -999 -999  
2001-07-19 09:30:33 51°16.638 2°54.529 -999 -999 -999  
2001-07-19 09:31:33 51°16.741 2°54.636 -999 -999 -999  
2001-07-19 09:32:35 51°16.761 2°54.693 -999 -999 -999  
2001-07-19 09:33:35 51°16.754 2°54.73 -999 -999 -999  
2001-07-19 09:34:33 51°16.754 2°54.777 -999 -999 -999  
2001-07-19 09:35:33 51°16.758 2°54.829 -999 -999 -999  
2001-07-19 09:36:33 51°16.761 2°54.885 -999 -999 -999  
2001-07-19 09:37:33 51°16.772 2°54.951 -999 -999 -999  
2001-07-19 09:38:33 51°16.862 2°55.04 -999 -999 -999  
2001-07-19 09:39:33 51°17.017 2°55.045 -999 -999 -999  
2001-07-19 09:40:33 51°17.187 2°55.074 -999 -999 -999  
2001-07-19 09:41:33 51°17.344 2°55.071 -999 -999 -999  
2001-07-19 09:42:33 51°17.395 2°55.1 -999 -999 -999  
2001-07-19 09:43:33 51°17.406 2°55.155 -999 -999 -999  
2001-07-19 09:44:33 51°17.418 2°55.213 -999 -999 -999  
2001-07-19 09:45:33 51°17.43 2°55.268 -999 -999 -999  
2001-07-19 09:46:33 51°17.44 2°55.319 -999 -999 -999  
2001-07-19 09:47:33 51°17.45 2°55.374 -999 -999 -999  
2001-07-19 09:48:33 51°17.468 2°55.446 -999 -999 -999  
2001-07-19 09:49:33 51°17.48 2°55.542 -999 -999 -999  
2001-07-19 09:50:33 51°17.472 2°55.636 -999 -999 -999  
2001-07-19 09:51:33 51°17.453 2°55.72 -999 -999 -999  
2001-07-19 09:52:33 51°17.431 2°55.804 -999 -999 -999  
2001-07-19 09:53:33 51°17.407 2°55.889 -999 -999 -999  
2001-07-19 09:54:33 51°17.385 2°55.971 -999 -999 -999  
2001-07-19 09:55:33 51°17.367 2°56.047 -999 -999 -999  
2001-07-19 09:56:33 51°17.354 2°56.117 -999 -999 -999  
2001-07-19 09:57:33 51°17.346 2°56.182 -999 -999 -999  
2001-07-19 09:58:33 51°17.353 2°56.232 -999 -999 -999  
2001-07-19 09:59:35 51°17.372 2°56.27 -999 -999 -999  
2001-07-19 10:00:35 51°17.398 2°56.294 -999 -999 -999  
2001-07-19 10:01:35 51°17.415 2°56.336 -999 -999 -999  
2001-07-19 10:02:33 51°17.443 2°56.446 -999 -999 -999  
2001-07-19 10:03:33 51°17.517 2°56.478 -999 -999 -999  
2001-07-19 10:04:33 51°17.517 2°56.423 -999 -999 -999  
2001-07-19 10:05:34 51°17.465 2°56.355 -999 -999 -999  
2001-07-19 10:06:33 51°17.443 2°56.292 -999 -999 -999  
2001-07-19 10:07:33 51°17.429 2°56.245 -999 -999 -999  
2001-07-19 10:08:33 51°17.395 2°56.22 -999 -999 -999  
2001-07-19 10:09:35 51°17.361 2°56.188 -999 -999 -999  
2001-07-19 10:10:33 51°17.343 2°56.164 -999 -999 -999  
2001-07-19 10:11:33 51°17.34 2°56.158 -999 -999 -999  
2001-07-19 10:12:33 51°17.343 2°56.165 -999 -999 -999  
2001-07-19 10:13:33 51°17.344 2°56.179 -999 -999 -999  
2001-07-19 10:14:33 51°17.344 2°56.196 -999 -999 -999  
2001-07-19 10:15:33 51°17.343 2°56.212 -999 -999 -999  
2001-07-19 10:16:33 51°17.333 2°56.218 -999 -999 -999  
2001-07-19 10:17:33 51°17.325 2°56.188 -999 -999 -999  
2001-07-19 10:18:33 51°17.333 2°56.145 -999 -999 -999  
2001-07-19 10:19:33 51°17.35 2°56.147 -999 -999 -999  
2001-07-19 10:20:33 51°17.357 2°56.172 -999 -999 -999  
2001-07-19 10:21:35 51°17.358 2°56.205 -999 -999 -999  
2001-07-19 10:22:33 51°17.355 2°56.232 -999 -999 -999  
2001-07-19 10:23:33 51°17.342 2°56.217 -999 -999 -999  
2001-07-19 10:24:33 51°17.331 2°56.141 -999 -999 -999  
2001-07-19 10:25:33 51°17.347 2°56.065 -999 -999 -999  
2001-07-19 10:26:33 51°17.355 2°56.05 -999 -999 -999  
2001-07-19 10:27:33 51°17.361 2°56.069 -999 -999 -999  
2001-07-19 10:28:55 51°17.362 2°56.125 -999 -999 -999  
2001-07-19 10:29:55 51°17.361 2°56.16 -999 -999 -999  
2001-07-19 10:30:56 51°17.4 2°56.121 -999 -999 -999  
2001-07-19 10:31:57 51°17.493 2°56.259 -999 -999 -999  
2001-07-19 10:32:55 51°17.619 2°56.421 -999 -999 -999  
2001-07-19 10:33:55 51°17.744 2°56.617 -999 -999 -999  
2001-07-19 10:34:56 51°17.88 2°56.806 -999 -999 -999  
2001-07-19 10:36:15 51°18.005 2°56.965 -999 -999 -999  
2001-07-19 10:37:15 51°18.013 2°57.016 -999 -999 -999  
2001-07-19 10:38:15 51°18.022 2°57.1 -999 -999 -999  
2001-07-19 10:41:23 51°17.937 2°56.924 -999 -999 -999  
2001-07-19 10:42:23 51°17.934 2°56.912 -999 -999 -999  
2001-07-19 10:43:23 51°17.937 2°56.943 -999 -999 -999  
2001-07-19 10:44:23 51°17.94 2°56.982 -999 -999 -999  
2001-07-19 10:45:23 51°17.944 2°57.028 -999 -999 -999  
2001-07-19 10:46:23 51°17.921 2°57.066 -999 -999 -999  
2001-07-19 10:47:23 51°17.908 2°57.203 -999 -999 -999  
2001-07-19 10:48:23 51°17.986 2°57.35 -999 -999 -999  
2001-07-19 10:49:23 51°18.116 2°57.462 -999 -999 -999  
2001-07-19 10:56:05 51°18.326 2°57.873 -999 0.070124 55.381175  
2001-07-19 10:57:03 51°18.329 2°57.894 -999 0.070124 55.386058  
2001-07-19 10:58:03 51°18.333 2°57.924 -999 0.070124 55.387035  
2001-07-19 10:59:03 51°18.338 2°57.963 -999 0.070025 55.304817  
2001-07-19 11:00:03 51°18.343 2°58.01 -999 0.070124 55.40169  
2001-07-19 11:01:03 51°18.346 2°58.054 -999 0.070025 55.306768  
2001-07-19 11:02:03 51°18.322 2°58.036 -999 0.070124 55.403644  
2001-07-19 11:03:03 51°18.295 2°57.966 -999 0.070025 55.325308  
2001-07-19 11:04:03 51°18.278 2°57.875 -999 0.070124 55.406577  
2001-07-19 11:05:03 51°18.258 2°57.782 -999 0.070025 55.320427  
2001-07-19 11:06:03 51°18.21 2°57.709 -999 4.512113 -999  
2001-07-19 11:07:03 51°18.156 2°57.64 -999 4.453087 -999  
2001-07-19 11:08:03 51°18.104 2°57.569 -999 2.879732 -999  
2001-07-19 11:39:41 51°16.413 2°55.226 -999 4.446672 -999  
2001-07-19 11:40:41 51°16.334 2°55.139 -999 4.446071 -999  
2001-07-19 11:41:41 51°16.171 2°54.999 -999 4.437751 -999  
2001-07-19 11:42:41 51°15.974 2°54.914 -999 4.441059 -999  
2001-07-19 11:43:41 51°15.775 2°54.839 -999 4.432639 -999  
2001-07-19 11:44:41 51°15.566 2°54.823 -999 4.435647 -999  
2001-07-19 11:45:41 51°15.356 2°54.794 -999 4.437852 -999  
2001-07-19 11:46:41 51°15.15 2°54.767 -999 4.439656 -999  
2001-07-19 11:47:41 51°14.942 2°54.762 -999 4.442963 -999  
2001-07-19 11:48:41 51°14.735 2°54.773 -999 4.441258 -999  
2001-07-19 11:49:41 51°14.528 2°54.882 -999 4.432437 -999  
2001-07-19 11:50:43 51°14.348 2°55.087 -999 4.417401 -999  
2001-07-19 11:51:41 51°14.225 2°55.318 -999 4.378007 -999  
2001-07-19 11:52:41 51°14.086 2°55.456 -999 4.128048 -999  
2001-07-19 11:53:41 51°13.991 2°55.508 -999 3.929549 -999  
2001-07-19 11:54:41 51°13.899 2°55.572 -999 4.195189 -999  
2001-07-19 11:55:41 51°13.793 2°55.651 -999 4.120729 -999  
2001-07-19 11:56:43 51°13.723 2°55.742 -999 4.231164 -999  
2001-07-19 11:57:41 51°13.702 2°55.814 -999 2.95265 -999  
2001-07-19 11:58:41 51°13.688 2°55.872 -999 3.47261 -999  
2001-07-19 11:59:43 51°13.678 2°55.918 -999 3.764149 -999  
2001-07-19 12:00:41 51°13.675 2°55.924 -999 4.090768 -999  
2001-07-19 12:01:42 51°13.675 2°55.924 -999 3.785586 -999  
2001-07-19 12:02:41 51°13.675 2°55.925 -999 4.09157 -999  
2001-07-19 12:03:43 51°13.676 2°55.925 -999 0.066868 53.250966  
2001-07-19 12:04:43 51°13.676 2°55.925 -999 0.048319 36.77745  
2001-07-19 12:05:41 51°13.676 2°55.925 -999 0.281254 -999  
2001-07-19 12:06:41 51°13.676 2°55.924 -999 0.082261 59.771396  
2001-07-19 12:25:49 51°13.676 2°55.925 -999 0.074268 53.658434  
2001-07-19 12:26:49 51°13.677 2°55.924 -999 0.074268 53.671906  
2001-07-19 12:27:49 51°13.677 2°55.925 -999 0.074366 53.768641  
2001-07-19 12:31:19 51°13.674 2°55.925 -999 0.074465 53.895085  
2001-07-19 12:32:20 51°13.674 2°55.924 -999 0.074465 53.908641  
2001-07-19 12:33:20 51°13.675 2°55.925 -999 0.074366 53.837956  
2001-07-19 12:34:20 51°13.676 2°55.925 -999 0.074366 53.850657  
2001-07-19 12:35:20 51°13.675 2°55.925 -999 0.074366 53.862518  
2001-07-19 12:36:20 51°13.675 2°55.925 -999 0.074366 53.873537  
2001-07-19 12:37:20 51°13.675 2°55.925 -999 0.074366 53.884561  
2001-07-19 12:38:20 51°13.676 2°55.925 -999 0.074268 53.812971  
2001-07-19 12:39:21 51°13.676 2°55.925 -999 0.074268 53.823139  
2001-07-19 12:40:21 51°13.677 2°55.924 -999 0.074268 53.83416  
2001-07-19 12:41:20 51°13.677 2°55.924 -999 0.074169 53.762543  
2001-07-19 12:42:20 51°13.677 2°55.924 -999 0.074169 53.773556  
2001-07-19 12:43:20 51°13.677 2°55.924 -999 0.07407 53.702769  
2001-07-19 12:44:20 51°13.677 2°55.924 -999 0.07407 53.713774  
2001-07-19 12:45:21 51°13.677 2°55.924 -999 0.073972 53.640432  
2001-07-19 12:46:20 51°13.677 2°55.924 -999 0.073972 53.65143  
2001-07-19 12:47:20 51°13.677 2°55.924 -999 0.073873 53.578075  
2001-07-19 12:48:21 51°13.677 2°55.925 -999 0.073873 53.5916  
2001-07-19 12:49:20 51°13.676 2°55.925 -999 0.073774 53.517385  
2001-07-19 12:50:20 51°13.676 2°55.924 -999 0.073774 53.524142  
2001-07-19 12:51:20 51°13.675 2°55.924 -999 0.073676 53.449921  
2001-07-19 12:52:21 51°13.675 2°55.924 -999 0.073577 53.375703  
2001-07-19 12:53:21 51°13.675 2°55.924 -999 0.073478 53.301487  
2001-07-19 12:54:21 51°13.675 2°55.925 -999 0.073478 53.310746  
2001-07-19 12:55:20 51°13.675 2°55.924 -999 0.07338 53.234  
2001-07-19 12:56:21 51°13.675 2°55.924 -999 0.073281 53.159782  
2001-07-19 12:57:20 51°13.676 2°55.924 -999 0.073182 53.085567  
2001-07-19 12:58:20 51°13.676 2°55.924 -999 0.073084 53.011355  
2001-07-19 12:59:21 51°13.675 2°55.924 -999 0.073084 53.018893  
2001-07-19 13:00:21 51°13.676 2°55.924 -999 0.073084 53.028109  
2001-07-19 13:01:20 51°13.677 2°55.924 -999 0.072985 52.95639  
2001-07-19 13:02:20 51°13.677 2°55.924 -999 0.072985 52.965599